This demonstration page uses our WeatherBlox Daily Observations layout. Learn more.

Left ArrowRight Arrow

53.62937, 11.41316

Hourly Observations for August 28, 2021

Temp ( °F °C ) Dew Point ( °F °C ) Humidity (%) Winds ( mph kmh ) Pressure ( in mb ) Visibility ( mi km ) Precip ( " mm )
7:50 am 07:50 Mostly Cloudy with Light Rain 59 15 57 14 94 94 N 9 15 30.00 1016 30 48 N/A
8:20 am 08:20 Mostly Cloudy with Light Rain 59 15 57 14 94 94 N 7 11 30.00 1016 30 48 N/A
8:50 am 08:50 Mostly Cloudy with Light Rain 59 15 57 14 94 94 N 8 13 30.00 1016 30 48 N/A
9:20 am 09:20 Mostly Cloudy with Light Rain 59 15 59 15 100 100 N 7 11 30.00 1016 6 9 N/A
9:50 am 09:50 Mostly Cloudy with Light Rain 59 15 59 15 100 100 N 9 15 30.03 1017 30 48 N/A
10:20 am 10:20 Mostly Cloudy with Light Rain 61 16 59 15 94 94 N 9 15 30.03 1017 30 48 N/A
10:50 am 10:50 Mostly Cloudy 61 16 59 15 94 94 N 10 17 30.03 1017 6 9 N/A
11:20 am 11:20 Mostly Cloudy with Drizzle 61 16 59 15 94 94 N 10 17 30.03 1017 30 48 N/A
11:50 am 11:50 Mostly Cloudy 61 16 59 15 94 94 N 9 15 30.03 1017 30 48 N/A
12:20 pm 12:20 Mostly Cloudy 61 16 59 15 94 94 N 9 15 30.03 1017 30 48 N/A
12:50 pm 12:50 Mostly Cloudy 61 16 59 15 94 94 NNE 12 19 30.03 1017 30 48 N/A
1:20 pm 13:20 Mostly Cloudy 61 16 57 14 88 88 NNE 10 17 30.03 1017 30 48 N/A
1:50 pm 13:50 Mostly Cloudy 61 16 59 15 94 94 N 9 15 30.03 1017 30 48 N/A
2:20 pm 14:20 Mostly Cloudy with Light Rain 59 15 59 15 100 100 N 8 13 30.03 1017 3 5 N/A
2:50 pm 14:50 Mostly Cloudy with Drizzle 59 15 59 15 100 100 N 9 15 30.03 1017 3 5 N/A
3:20 pm 15:20 Mostly Cloudy 61 16 59 15 94 94 N 9 15 30.03 1017 30 48 N/A
3:50 pm 15:50 Mostly Cloudy with Light Rain 59 15 59 15 100 100 NNE 10 17 30.03 1017 2 3 N/A
4:20 pm 16:20 Mostly Cloudy 61 16 59 15 94 94 N 10 17 30.03 1017 6 9 N/A
4:50 pm 16:50 Mostly Cloudy with Light Rain 61 16 59 15 94 94 N 6 9 30.03 1017 3 5 N/A
5:20 pm 17:20 Mostly Cloudy with Light Rain 59 15 59 15 100 100 NNE 7 11 30.03 1017 3 5 N/A
5:50 pm 17:50 Mostly Cloudy with Drizzle 59 15 59 15 100 100 N 7 11 30.03 1017 4 6 N/A
6:20 pm 18:20 Mostly Cloudy with Drizzle 59 15 59 15 100 100 N 7 11 30.03 1017 6 9 N/A
6:50 pm 18:50 Mostly Cloudy with Light Rain 59 15 59 15 100 100 N 5 7 30.03 1017 3 5 N/A
7:20 pm 19:20 Mostly Cloudy with Drizzle 59 15 59 15 100 100 NNW 8 13 30.03 1017 3 5 N/A
7:50 pm 19:50 Mostly Cloudy with Drizzle 59 15 59 15 100 100 N 9 15 30.03 1017 3 5 N/A
8:20 pm 20:20 Mostly Cloudy with Drizzle 59 15 59 15 100 100 N 7 11 30.03 1017 2 4 N/A
8:50 pm 20:50 Mostly Cloudy with Light Rain 59 15 59 15 100 100 N 7 11 30.03 1017 3 5 N/A
9:20 pm 21:20 Mostly Cloudy with Drizzle 59 15 59 15 100 100 NW 6 9 30.03 1017 4 7 N/A
9:50 pm 21:50 Mostly Cloudy with Light Rain 59 15 59 15 100 100 NW 6 9 30.03 1017 3 5 N/A
10:20 pm 22:20 Mostly Cloudy with Drizzle 59 15 57 14 94 94 NNW 6 9 30.03 1017 5 8 N/A
10:50 pm 22:50 Mostly Cloudy with Drizzle 59 15 57 14 94 94 NNW 6 9 30.03 1017 5 8 N/A

Powered by AerisWeather